This demonstration page uses our WeatherBlox Daily Observations layout. Learn more.

Left ArrowRight Arrow

47.50024, -111.30081

Hourly Observations for April 29, 2016

Temp ( °F °C ) Dew Point ( °F °C ) Humidity (%) Winds ( mph kmh ) Pressure ( in mb ) Visibility ( mi km ) Precip ( " mm )
12:53 am 00:53 Cloudy 38 3.3 32 0 79 79 E 10 17 30.11 1020 10 16 0.00 0.00
1:53 am 01:53 Cloudy 37 2.8 32 0 82 82 E 9 15 30.09 1019 10 16 0.00 0.00
2:53 am 02:53 Cloudy 37 2.8 33 0.6 86 86 E 6 9 30.06 1018 10 16 0.00 0.00
3:53 am 03:53 Cloudy 36 2.2 33 0.6 89 89 ENE 5 7 30.07 1018 10 16 0.00 0.00
4:53 am 04:53 Cloudy 35 1.7 33 0.6 93 93 Calm 30.06 1018 10 16 0.00 0.00
5:53 am 05:53 Cloudy 35 1.7 33 0.6 93 93 Calm 30.05 1018 10 16 0.00 0.00
6:53 am 06:53 Cloudy 35 1.7 33 0.6 93 93 SW 3 6 30.05 1018 10 16 0.00 0.00
7:28 am 07:28 Cloudy 37 3 36 2 93 93 S 3 6 30.03 1017 10 16 0.00 0.00
7:53 am 07:53 Cloudy 37 2.8 35 1.7 93 93 Calm 30.05 1018 10 16 0.00 0.00
8:53 am 08:53 Cloudy 39 3.9 35 1.7 86 86 SW 5 7 30.04 1017 10 16 0.00 0.00
9:53 am 09:53 Partly Cloudy 43 6.1 33 0.6 68 68 S 8 13 30.04 1017 10 16 0.00 0.00
10:34 am 10:34 Mostly Cloudy 45 7 32 0 61 61 VRB 5 7 29.97 1015 10 16 0.00 0.00
10:50 am 10:50 Partly Cloudy 45 7 30 -1 57 57 SSW 7 11 29.97 1015 10 16 0.00 0.00
10:53 am 10:53 Partly Cloudy 44 6.7 30 -1.1 58 58 Calm 30.04 1017 10 16 0.00 0.00
11:53 am 11:53 Cloudy 47 8.3 31 -0.6 54 54 VRB 5 7 30.01 1016 10 16 0.00 0.00
12:53 pm 12:53 Cloudy 48 8.9 28 -2.2 46 46 Calm 30.00 1016 10 16 0.00 0.00
1:53 pm 13:53 Cloudy 50 10 30 -1.1 46 46 ENE 6 9 29.98 1015 10 16 0.00 0.00
2:53 pm 14:53 Cloudy 51 10.6 28 -2.2 41 41 N 7 11 29.97 1015 10 16 0.00 0.00
3:53 pm 15:53 Cloudy 51 10.6 29 -1.7 43 43 Calm 29.97 1015 10 16 0.00 0.00
4:53 pm 16:53 Cloudy 51 10.6 30 -1.1 44 44 N 9 15 29.98 1015 10 16 0.00 0.00
5:53 pm 17:53 Cloudy 51 10.6 32 0 48 48 NNE 12 19 29.98 1015 10 16 0.00 0.00
6:53 pm 18:53 Cloudy 50 10 34 1.1 54 54 NE 13 20 30.00 1016 10 16 0.00 0.00
7:53 pm 19:53 Cloudy 48 8.9 35 1.7 61 61 ENE 10 17 30.01 1016 10 16 0.00 0.00
8:53 pm 20:53 Mostly Cloudy 45 7.2 34 1.1 66 66 ENE 6 9 30.03 1017 10 16 0.00 0.00
9:53 pm 21:53 Mostly Cloudy 44 6.7 34 1.1 68 68 E 9 15 30.04 1017 10 16 0.00 0.00
10:53 pm 22:53 Clear 42 5.6 34 1.1 73 73 E 9 15 30.05 1018 10 16 0.00 0.00
11:53 pm 23:53 Clear 40 4.4 34 1.1 79 79 E 8 13 30.05 1018 10 16 0.00 0.00

Powered by AerisWeather